Utilitzem cookies pròpies i de tercers per millorar la seva experiència i els nostres serveis,analitzant la navegació en el nostre Lloc Web. Si continua navegant, vostè està acceptant el seu ús. Podeu obtenir més informació a la nostra Política de cookies. OK

En viu: Roc Gros 12 Kms

Roc Gros 12 Kms

Resultats provisionals

Potser que algun punt de control no tingui connexió a internet o la tingui deficient.

En aquest cas els passos no es podran visualitzar en directe i aniran apareixent a mesura que siguin transmesos des dels punts de control.

Arribada - Arribada


17
Pendents

306
Han passat

Homes

# - Posició P.C. - Participant Temps Dorsal

1 - 1 - CESKO COMPTE BOVER 00:54:39 539

2 - 2 - RAÚL CEJUDO ALBA 00:55:24 358

3 - 3 - ARNAU XIFRè GOMIS 00:55:50 584

4 - 4 - FRANCESC FREIXER ALSINA 00:55:58 603

5 - 5 - PAU SERRA ESCANDELL 00:57:13 436

6 - 6 - ADRIà LOPEZ VILAJOSANA 00:57:31 452

7 - 7 - JORDI PUJOL RUBIÓ 00:57:46 620

8 - 8 - DAVID MALAGON LOPEZ 00:58:04 396

9 - 9 - JORDI MARTIN PASCUAL 00:58:16 563

10 - 10 - OSCAR FLORES LOPEZ 00:59:18 344

11 - 11 - ORIOL PUJOL CODERCH 00:59:38 312

12 - 12 - ALBERT CANET ROVIRA 01:00:23 390

13 - 13 - ISAAC VINIEGRA DONAIRE 01:00:31 384

14 - 14 - CARLES RODRIGUEZ SALINAS RODRIGUEZ SALINAS 01:00:34 373

15 - 15 - JORDI PARAREDA NADEU 01:00:35 562

16 - 16 - ROGER GOME DIEZ 01:00:35 614

17 - 17 - DAVID QUILES ALAMINOS 01:01:44 536

18 - 18 - IVÁN PRIETO GONZALEZ 01:02:06 477

19 - 19 - MARTí PEDRON PLADEVALL 01:02:14 447

20 - 20 - ALEX HERNANDEZ MARTINEZ 01:02:24 478

21 - 21 - GUILLEM CAMPRODON 01:02:28 424

22 - 22 - MARC ALABERN MACHUCA 01:02:28 435

23 - 23 - CARLOS SIERRA NOGUERAS SIERRA NOGUERAS 01:02:35 488

24 - 24 - JOAN CANET BALLESTER 01:02:38 583

25 - 25 - ROGER PONT FABRE 01:02:39 366

26 - 26 - DANIEL MARTINEZ SERRANO 01:02:55 600

27 - 27 - FERRAN RIBELLES RIBELLES DIAZ 01:02:56 429

28 - 28 - RAFAEL SANCHEZ MARTIN 01:03:07 631

29 - 29 - ALFRED GARCIA ARRASTIA 01:03:53 340

30 - 30 - JAUME RIVELLES PRATS 01:04:19 598

31 - 31 - ALEIX MOYA MALLORQUES 01:04:54 346

32 - 32 - JOAN PEREZ GARCIA 01:05:19 468

33 - 33 - DANIEL ESCOLà GARCIA 01:05:29 504

34 - 34 - MARC VILA MIARONS 01:05:43 594

35 - 35 - YERAY RODRíGUEZ JIMéNEZ 01:05:55 391

36 - 37 - EDUARD MUNTADA 01:06:32 628

37 - 38 - JORDI PLA CODINA 01:06:32 629

38 - 39 - SERGI MARCHAL TARIN 01:06:55 385

39 - 40 - XEVI MASCARó ULLASTRE 01:06:55 533

40 - 41 - MARTí VALLBONA YLLA-CATALà 01:06:55 456

41 - 42 - JOSEP ZANUY 01:06:57 549

42 - 43 - JOAN MONTERO MENGIBAR 01:07:12 537

43 - 44 - CARLES MALLARACH PUJOL 01:07:13 535

44 - 45 - PAKO GARCIA RODRIGUEZ 01:07:18 492

45 - 47 - ORIOL MONSERDà PèREZ 01:07:29 302

46 - 48 - DANIEL CHIMBO SUQUILANDA 01:07:32 493

47 - 49 - ENRIC ALEXANDRE TEMPRADO 01:07:35 509

48 - 50 - RAúL CAñADA ALONSO 01:07:37 587

49 - 51 - JORDI ESCRIU MOLINé 01:07:44 375

50 - 53 - JORDI TANTIÑÀ CALM 01:07:54 564

51 - 54 - FRANCESC GINE SABATA 01:07:58 621

52 - 55 - SANTI CASALS 01:07:59 402

53 - 56 - POL COROMINA BURGOS 01:08:06 443

54 - 57 - ARNAU ROVIRA GONZALEZ 01:08:13 632

55 - 58 - JOFRE CEDó CUENCA 01:08:20 552

56 - 59 - ARNAU FONT PEIRIS 01:08:21 554

57 - 61 - ENRIC CRUZ MARTINEZ 01:08:51 593

58 - 62 - FRANCESC PARRAMON MUNTADA 01:09:15 305

59 - 63 - JORDI PORTELL PUJOL 01:09:19 417

60 - 64 - POL RELATS CAMPS 01:09:24 394

61 - 65 - MARC GINESTA COMAS 01:09:54 527

62 - 66 - MARC CASAS PIñOL 01:09:55 606

63 - 67 - EMILIO LOZANO DE LA TORRE 01:10:07 597

64 - 68 - ORIOL SOLDEVILA SAYóS 01:10:17 578

65 - 69 - RICHARD NEWELL 01:10:18 550

66 - 70 - LLUíS TORRENTS PUJADAS 01:10:18 414

67 - 72 - XAVI SANCHEZ 01:10:44 625

68 - 73 - DANIEL CEPIñA RODRIGUEZ 01:10:47 508

69 - 74 - SERGI ADÁN JORDÁN 01:10:56 440

70 - 75 - ROGER GARRIGA 01:11:07 438

71 - 77 - VICENç HERNáNDEZ MéNDEZ 01:11:13 432

72 - 78 - JOSEP BELLANA ORS 01:11:23 555

73 - 79 - JOAN PARELLA LAZARO 01:11:26 325

74 - 80 - CHRISTIAN COMAS BOIX 01:11:44 308

75 - 81 - JORDI VILA RIUBROGENT 01:11:48 347

76 - 82 - LLUíS VALLS HERNANDO 01:11:58 523

77 - 83 - JOSE DE LA IGLESIA 01:12:03 560

78 - 84 - EDUARD MALLARACH PUJOL 01:12:06 589

79 - 85 - GERARD CODOLà ROSELLó 01:12:08 450

80 - 86 - SERGI GORCHS AGUILAR 01:12:38 392

81 - 87 - JOAN RAMON REDONDO VERDAGUER 01:12:48 524

82 - 88 - MARC ALONSO GARCíA 01:12:53 574

83 - 90 - XAVI ROMERO CINTAS ROMERO CINTAS 01:13:03 349

84 - 91 - JORDI MERINO SEUMA 01:13:12 386

85 - 92 - JORDI TANTINYà SERRAT 01:13:34 374

86 - 93 - ARNAU OJEDA CAMPAS 01:13:35 423

87 - 94 - IVAN ARXé SANTIGOSA 01:13:46 494

88 - 95 - JUAN JOSE TRUY MARTINEZ 01:13:56 596

89 - 97 - JORDI OSORIO TORDERA 01:14:06 630

90 - 97 - JORDI OSORIO TORDERA 01:14:04 630

91 - 98 - JAUME PARES VALENCIA 01:14:09 529

92 - 99 - ARNAU OMS I RIERA 01:14:10 617

93 - 101 - JOAN VILA CARRERA 01:14:12 543

94 - 103 - ALEXANDRE GIL MORENO 01:14:24 415

95 - 106 - JAUME MIARONS BAGARIA 01:14:40 316

96 - 107 - ROGER VILARDELL ARUMI 01:14:45 357

97 - 108 - XAVI SáNCHEZ FONT 01:14:49 311

98 - 109 - JOSEP IGLESIAS FLORENSA 01:15:01 582

99 - 110 - MARC VILALTA CRUSELLAS 01:15:07 577

100 - 111 - MARC VIñAS VILARó 01:15:08 469

101 - 112 - ENRIC DOT MIRALPEIX 01:15:16 434

102 - 113 - MIQUEL VINYOLES TONEU 01:15:19 425

103 - 115 - JOAN REDONDO PELAEZ 01:15:47 458

104 - 116 - ALEIX GONZáLEZ LóPEZ 01:15:48 327

105 - 117 - DAVID PUJOL RIERA 01:15:55 459

106 - 119 - ROGER TOBAJAS ROSELL 01:16:18 337

107 - 120 - MARC RELATS CAMPS 01:16:53 393

108 - 121 - JAUME VILA MAS 01:16:53 348

109 - 122 - IKER MOLINA PEREZ 01:17:03 418

110 - 123 - ANDREU MONTMANY CORDERO 01:17:20 499

111 - 124 - JOAN MARTINEZ ROVIRA 01:17:20 441

112 - 125 - JORDI PUJADAS OLIVE 01:17:23 460

113 - 126 - JOSE MEDINA LUENGO 01:17:29 364

114 - 127 - PEP MOLAS VALLS 01:17:42 495

115 - 128 - ALBERT MOLAS VALLS 01:17:46 430

116 - 129 - RICARD GEY MONTERO 01:17:56 335

117 - 130 - FLAVIO DA SILVA 01:18:07 572

118 - 132 - JOSE MANUEL PARTIDO GARCíA 01:18:23 559

119 - 133 - XEVI OLIVA BAUTISTA 01:18:25 571

120 - 134 - ORIOL CAMPRUBI TORRAS 01:18:41 607

121 - 135 - MARC LLADó CASTRESANA 01:18:44 612

122 - 137 - LLUIS VILARDELL SALLENT 01:18:46 356

123 - 138 - GUILLEM ROMEU CARRERA 01:18:47 568

124 - 139 - ISAAC MENDOZA BLANCAFORT 01:19:11 314

125 - 140 - DAVID SáNCHEZ SERRADESANFERM 01:19:12 482

126 - 141 - JAVIER CASTELLANO MARTIN 01:19:14 433

127 - 142 - MIGUEL ANGEL SIERRA NOGUERAS 01:19:15 427

128 - 143 - ALBERT MARTINEZ BOIXADER 01:19:16 474

129 - 144 - ALBERT DICHA TINTO 01:19:16 304

130 - 146 - XAVIER ARGEMí MARQUEZ 01:19:41 381

131 - 147 - JOAN MANEL CASTILLO RUBIO 01:19:46 528

132 - 149 - AITOR LOPEZ 01:19:55 407

133 - 150 - FRANCISCO JAVIER NIEVES BARRERA 01:19:56 408

134 - 151 - NARCIS CASELLASBADIA 01:19:58 323

135 - 153 - ARNAU BOTé BOIX 01:19:59 531

136 - 154 - VLADIMIR SANTAMARIA CAMP 01:20:00 616

137 - 156 - DANIEL GONZALEZ TOBIAS 01:20:01 365

138 - 159 - MARC MORENO NúñEZ 01:20:16 558

139 - 161 - LLUíS ORTEGA CODINA 01:20:22 400

140 - 162 - PACO NAVARRO MATEO 01:20:28 476

141 - 163 - JOSEP MARIA VILARó FAIXEDAS 01:20:31 354

142 - 165 - SERGI LINUESA MONLEON 01:20:55 484

143 - 166 - DANI CORVO ROJAS 01:20:59 483

144 - 167 - JORDI CARDONA CASALS 01:21:05 413

145 - 168 - FRANCISCO QUILES ORTIZ 01:21:09 561

146 - 170 - CESAR GONZáLEZ MARTíNEZ 01:21:17 319

147 - 171 - JORDI PARRAMON MONTEIS 01:21:20 610

148 - 172 - DANI LóPEZ 01:21:27 454

149 - 173 - TONI RELATS BARRAGAN 01:21:34 448

150 - 174 - ALBERTO LARA MATEO 01:21:49 601

151 - 175 - ORIOL GOMEZ MORA 01:21:55 623

152 - 176 - GUILLEM BLANCAFORT PUIG 01:21:59 370

153 - 177 - MARIO CHAMIZO CHAMIZO AGUILERA 01:22:07 449

154 - 179 - MIQUEL MOLIST CHECA 01:22:25 479

155 - 180 - ORIOL CASAS CASAS PUJADAS 01:22:29 445

156 - 181 - DAVID ARMADANS CALM 01:22:38 569

157 - 182 - SERGI GÓMEZ GISPERT 01:22:47 361

158 - 183 - FABIO TUNINETTI ÁLVAREZ 01:22:52 576

159 - 185 - JUMI RELATS PUIG 01:23:13 404

160 - 186 - JORDI ROCA FONT 01:23:29 334

161 - 187 - JONATAN COTO FUNES 01:23:31 331

162 - 188 - JOSEP VILADOMS ROSELLO 01:23:37 622

163 - 192 - SEGUNDO MORQUECHO 01:23:58 585

164 - 193 - MARC ROS BIADA ROS BIADA 01:24:01 544

165 - 195 - EMILIO MANUEL VIZCAINO SARES 01:24:16 496

166 - 197 - ALEXANDRE GALí SERRA 01:24:36 548

167 - 200 - JOAN ENRIC TIO CASAS 01:25:07 526

168 - 201 - NICOLAS VILCHEZ VILLAR 01:25:11 353

169 - 202 - NESTOR TERRIBAS 01:25:11 507

170 - 205 - RAFA ESCAMILLA SANCHEZ 01:25:30 505

171 - 206 - DAVID TOMAS CRUZ 01:25:33 309

172 - 207 - ALFREDO PUENTE GONZALEZ 01:25:34 416

173 - 208 - ESTEVE MONTMANY LLEONART 01:25:48 498

174 - 209 - JORDI DORCA TARRUELLA 01:25:54 624

175 - 212 - ROGER MONELLS RIU 01:26:01 591

176 - 213 - ENRIQUE SOLANO FERRER 01:26:03 618

177 - 218 - CARLES ROCA FONT 01:27:04 320

178 - 219 - JOSEP VILARÓ RIBE 01:27:11 426

179 - 221 - DAVID BURDONS CERCóS 01:27:29 405

180 - 222 - XAVIER FERRANDO BENITO 01:27:43 590

181 - 223 - ALEX GIMENEZ GARCIA 01:27:45 588

182 - 224 - POL ALBERCH 01:28:13 517

183 - 225 - MARC CANET BALLESTER 01:28:39 362

184 - 226 - ALEJANDRO GARCIA REYES 01:29:09 453

185 - 227 - JORDI HUGUET COTS 01:29:27 411

186 - 228 - RICARD AULET ROCA 01:29:41 428

187 - 230 - IRMANTAS BURBA 01:29:44 545

188 - 231 - SERGI LOPEZ ESPUñA 01:29:54 332

189 - 232 - DANI ALBACETE GARCIA 01:30:03 437

190 - 234 - DANI MENDIA VALENCIA 01:30:17 519

191 - 236 - SANTI MAYDEU GINEBRA 01:30:27 547

192 - 237 - DAVID MARIN AGUIALR 01:30:31 532

193 - 239 - TONI CALVO LOPEZ 01:30:50 351

194 - 240 - MARC PARRILLA MARTINEZ 01:30:52 611

195 - 241 - XAVIER RODRIGUEZ ARCARONS 01:30:53 502

196 - 244 - JORDI CANO ORELLANA 01:31:13 512

197 - 245 - ROGER BASSOLS MOREY 01:32:30 471

198 - 248 - IñAKI GARCIA JIMENEZ 01:33:20 480

199 - 249 - CHRISTIAN ALEXIS ORTEGA REYES 01:33:20 580

200 - 253 - JOAN LLUIS JOUNOU MORAL 01:34:18 342

201 - 254 - CECILIO RODRIGUEZ BARRIOS 01:34:49 399

202 - 260 - DAVID PUNTI TARRUELLA 01:36:14 604

203 - 263 - MARTI COROMINAS GARCIA 01:36:54 489

204 - 265 - GASPAR LISóN PORCEL 01:37:25 406

205 - 266 - FERRAN CLOSAS MESTRE 01:38:12 497

206 - 271 - RAüL FIGUERAS ALVAREZ 01:40:07 379

207 - 272 - DANI CROSAS NAVARRETE 01:40:08 380

208 - 280 - JORDI PELEGRINA PUYOL 01:41:35 377

209 - 285 - ERIC ESCAMILLA MORCILLO 01:44:42 363

210 - 286 - BIEL PRAT REUS 01:44:49 595

211 - 287 - SANTIAGO CARDENAS LOZANO 01:45:36 513

212 - 292 - ALFONSO BELMONTE ALARCON 01:50:45 514

213 - 294 - JESúS BELMONTE ALARCóN 02:04:57 516

214 - 294 - JESúS BELMONTE ALARCóN 02:04:55 516

215 - 299 - MARC NOGUER SERVITJA 02:32:20 464

216 - 300 - DANI NOGUER SERVITJA 02:32:22 463

217 - 301 - MARçAL NOGUER RIERA 02:33:45 467

218 - 303 - JOSEP NOGUER SERVITJA 02:33:48 462

Dones

# - Posició P.C. - Participant Temps Dorsal

1 - 36 - NEUS GUINOVART VENDRELL 01:06:01 359

2 - 46 - SARA ROCA MONTALBAN 01:07:25 369

3 - 52 - MIREIA LUSCHER ALEMANY 01:07:45 383

4 - 60 - ADRIANA FERNáNDEZ LóPEZ 01:08:28 510

5 - 71 - MONTSE FERNANDEZ VILAR 01:10:40 599

6 - 76 - MARIA VILLACROSA CULLELL 01:11:09 439

7 - 89 - IVET NAVARRO BLANCH 01:13:02 475

8 - 96 - MARIBEL MARTOS ARRIBAS 01:14:03 301

9 - 100 - LIA GOMEZ DIEZ 01:14:12 613

10 - 102 - IRENE DOMENE DOMENE DELGADO 01:14:13 490

11 - 104 - EVA CAPA PRADELL 01:14:27 409

12 - 105 - MERITXELL BANSELL ROCA 01:14:28 382

13 - 114 - JADIRA GONZáLEZ MAGRIñá 01:15:27 387

14 - 118 - MARIA PASTOR CRUZ 01:16:09 534

15 - 131 - PALOMA BLANCA CISCARES PERALES 01:18:08 566

16 - 136 - SANDRA HEREDERO ROMERO 01:18:44 538

17 - 145 - JUDIT LLASTARRI DIEZ 01:19:22 615

18 - 148 - GEORGINA ALBERCH FREIXA 01:19:48 371

19 - 152 - LAIA PLANAS BEORLEGUI 01:19:59 525

20 - 155 - MARIA SIERRA 01:20:00 318

21 - 157 - AIDA BLANCAFORT PUIG 01:20:04 352

22 - 158 - MONTSE BOSCH RAURELL 01:20:13 592

23 - 160 - PILI SANCHEZ JIMENEZ 01:20:21 455

24 - 164 - MIREIA FàBREGAS PLANA 01:20:37 322

25 - 169 - MARIONA CODINA PANEDAS 01:21:13 626

26 - 178 - MIREIA SOLà SABORIT 01:22:09 501

27 - 184 - MARIONA SORT PUJOL 01:23:11 303

28 - 189 - CLARA PéREZ FABRé 01:23:40 315

29 - 190 - SANDRA RODRÍGUEZ COMA 01:23:42 472

30 - 191 - ELISA PLANAGUMÀ 01:23:51 602

31 - 194 - JULIA PRATS COMA 01:24:07 586

32 - 196 - QUERALT GóMEZ MORA 01:24:21 556

33 - 198 - NAIARA CABALLERO MORALES 01:24:40 397

34 - 199 - SíLVIA VIñAS SERRA 01:24:47 553

35 - 203 - ARIADNA BIGAS ROMERA 01:25:11 506

36 - 204 - MARIBEL PEREZ NOGUEROL 01:25:17 503

37 - 210 - MARTA DOT GARCIA 01:25:55 473

38 - 211 - DELIA DONAIRE VINIEGRA 01:25:56 446

39 - 214 - ALOMA ARMADANS SALLENT 01:26:18 422

40 - 215 - NúRIA PARERA. 01:26:21 339

41 - 216 - REBECA MORENO BAILéN 01:26:37 419

42 - 217 - ANNA VIñOLAS I RAMISA 01:26:46 313

43 - 220 - PAULA MESA ROSALES 01:27:20 345

44 - 229 - MòNICA JOFRE SALOM 01:29:43 470

45 - 233 - ARIADNA PLANAS BEORLEGUI 01:30:16 518

46 - 235 - NúRIA COROMINAS SERRAT 01:30:19 627

47 - 238 - BETH ROVIRA DOMINGUEZ 01:30:32 530

48 - 242 - ARIADNA SANTAUGINI MASNOU 01:30:54 321

49 - 243 - OLGA CARRO VILELLA 01:31:12 372

50 - 246 - NEUS EZQUERRO RIQUELME 01:32:43 398

51 - 247 - ANDREA BUSQUé BUSQUé 01:32:45 388

52 - 250 - FLAVIE LOUESDON 01:33:26 317

53 - 251 - MARIA BARNILS GISPERT 01:33:47 575

54 - 252 - SUSANNA RODES SERRA 01:34:17 341

55 - 255 - MARTA PUJOLAR REIXACH 01:36:01 338

56 - 256 - JUDITH MOLINA TORRES 01:36:02 431

57 - 257 - ESTER LUQUE 01:36:05 421

58 - 258 - MIREIA PALOU PARES 01:36:06 461

59 - 259 - MARIA ALIBERCH CRUSELLAS 01:36:09 457

60 - 261 - MONTSE ESCRIU MOLINE 01:36:29 485

61 - 262 - MONTSE NUALART CRUELLS 01:36:39 522

62 - 264 - ESTER DOMENE DELGADO 01:36:54 451

63 - 267 - JULIA ROMEU BUSQUETS 01:38:17 367

64 - 268 - MARINA COLOMINAS MURCIANO 01:39:18 500

65 - 269 - CRISTINA VALLS 01:39:46 420

66 - 270 - NATALIA SOLER 01:39:51 410

67 - 273 - íNGRID PIN CASAL 01:40:39 401

68 - 274 - ROSA CIURANS VINYETA 01:40:43 412

69 - 275 - ALBA SEGURA GONZALEZ 01:41:01 336

70 - 276 - SOLVITA SENITAGOJA . 01:41:05 442

71 - 277 - JUDIT COSTA DORCA 01:41:19 579

72 - 278 - MARTA GISPERT ALCAIDE 01:41:30 378

73 - 279 - MARTA CAJIGOS 01:41:32 376

74 - 281 - TONI MESQUIAS LECHADO 01:42:56 541

75 - 282 - GEMMA MAS SOLER 01:43:03 609

76 - 283 - SANDRA LóPEZ GARRIDO LOPEZ GARRIDO 01:44:09 395

77 - 284 - NURIA MONTALBAN PUIGVI 01:44:39 608

78 - 288 - ALBA MASJUAN JUNQUERAS 01:46:50 491

79 - 289 - MARIONA FERNáNDEZ 01:47:03 330

80 - 290 - VANESSA NOGALES CURTO 01:49:12 487

81 - 291 - MONICA MASFERRER FERNÁNDEZ 01:50:43 511

82 - 293 - MARIA CARMEN FUENTES BONILLA 02:04:55 515

83 - 295 - ROSA SáNCHEZ BLANCO 02:31:48 540

84 - 296 - ELISENDA RIPOLLèS VILASECA 02:31:48 521

85 - 297 - MABEL GOMEZ 02:31:48 520

86 - 298 - ALBA ZAMORA CARBÓ 02:31:48 481

87 - 302 - MONTSE RIERA SALA 02:33:48 466

88 - 304 - GEMMA ARCARONS CARBONELL 02:33:49 465

Publicitat